Location: Lombard
(41.8800°N, 88.0080°W)
Time: 13:20:09
(UTC-06:00)

Transit 4A - Pass Details

Date: 30 November 2023
Orbit: 870 x 973 km, 66.8° (Epoch: 03 March)

Event Time Altitude Azimuth Distance (km) Brightness Sun altitude
Rises 06:35:15 0° 324° (NW) 3,592 - -4.8°
Exits shadow 06:35:33 - 324° (NW) 3,483 10.3 -4.7°
Reaches altitude 10° 06:37:53 10° 319° (NW) 2,628 9.7 -4.3°
Maximum altitude 06:43:41 47° 248° (WSW) 1,176 8.2 -3.3°
Drops below altitude 10° 06:49:19 10° 175° (S) 2,546 10.7 -2.4°
Sets 06:51:51 0° 170° (S) 3,469 11.5 -2.0°
